Welcome to the New NWS' Forecast!
Most changes are behind the scenes, but click here for differences you might notice.
Latest weather observations around

Seattle, Seattle-Tacoma International Airport (KSEA)

Using English Units (Switch to International System of Units)
Date/ Time (PDT) Wind (mph) Vis. (mi) Weather Sky Cond. Temp (°F) Rel. Humidity Wind Chill (°F) Heat Index (°F) Pressure Precip. (in)
Air Dwpt 6 hour Altimeter (inHg) Sea level (inHg) 1 hr 3 hr 6 hr
Max Min
Aug 16 02:53 SSW 10 7 Mostly Clear FEW004 59 56     90%     30 30      
Aug 16 02:35 SSW 7 7 Mostly Clear FEW005 60 56     86%     29.99        
Aug 16 01:53 S 7 7 Clear CLR 61 57     87%     29.98 29.99      
Aug 16 00:53 SSW 5 7 Clear CLR 64 55     73%     29.97 29.98      
Aug 15 23:53 W 5 7 Clear CLR 67 53     61%     29.95 29.96      
Aug 15 22:53 W 3 8 Clear CLR 68 54     61%     29.94 29.94      
Aug 15 21:53 W 5 7 Clear CLR 72 54     53%   71 29.92 29.93      
Aug 15 20:53 WNW 6 7 Clear CLR 75 52     45%   74 29.91 29.92      
Aug 15 19:53 WNW 5 6 Haze and Smoke CLR 78 52     40%   77 29.89 29.9      
Aug 15 18:53 WNW 6 6 Haze and Smoke CLR 82 55     40%   81 29.89 29.89      
Aug 15 17:53 WNW 8 7 Clear CLR 84 53     35%   83 29.89 29.9      
Aug 15 16:53 WNW 8 6 Haze and Smoke CLR 85 55     36%   84 29.89 29.9      
Aug 15 15:53 WNW 7 6 Haze and Smoke CLR 86 57     37%   85 29.89 29.9      
Aug 15 14:53 NNW 8 6 Haze and Smoke CLR 86 53     32%   84 29.9 29.91      
Aug 15 13:53 W 8 5 Smoke and Haze FEW040 83 53     36%   82 29.91 29.92      
Aug 15 12:53 WNW 7 3 Smoke and Haze SCT040 79 58     49%   79 29.92 29.93      
Aug 15 11:53 3 3 Smoke and Haze SCT040 78 57     48%   78 29.93 29.94      
Aug 15 10:53 WNW 5 3 Smoke and Haze SCT040 74 58     57%   74 29.93 29.94      
Aug 15 09:53 SSW 5 3 Smoke and Haze BKN040 70 58     66%     29.94 29.95      
Aug 15 08:53 3 3 Smoke and Haze BKN040 68 58     70%     29.94 29.95      
Aug 15 07:53 S 5 3 Smoke and Haze BKN040 64 58     81%     29.94 29.95      
Aug 15 06:53 S 5 3 Smoke and Haze OVC040 62 57     84%     29.92 29.93      
Aug 15 05:53 Calm 3 Smoke and Haze OVC040 62 56     80%     29.91 29.92      
Aug 15 04:53 Calm 4 Haze and Smoke OVC040 63 57     81%     29.9 29.91      
Aug 15 03:53 Calm 4 Haze and Smoke OVC039 65 56     73%     29.89 29.9      
Aug 15 02:53 Calm 4 Haze and Smoke OVC038 65 57     76%     29.89 29.9      
Aug 15 01:53 N 3 4 Haze and Smoke BKN036 68 58     70%     29.87 29.88      
Aug 15 00:53 NNW 5 4 Haze and Smoke BKN037 68 58     70%     29.87 29.88      
Aug 14 23:53 N 6 4 Haze and Smoke BKN035 69 58     68%     29.86 29.87      
Aug 14 22:53 N 8 4 Haze and Smoke BKN035 74 59     60%   74 29.85 29.86      
Aug 14 21:53 N 7 4 Haze and Smoke BKN040 74 55     52%   73 29.85 29.86      
Aug 14 20:53 N 8 4 Haze and Smoke OVC038 75 54     48%   74 29.84 29.85      
Aug 14 19:53 N 6 3 Haze and Smoke BKN033 79 54     42%   79 29.83 29.84      
Aug 14 18:53 N 9 3 Haze and Smoke BKN037 83 53     36%   82 29.84 29.85      
Aug 14 17:53 WNW 6 3 Haze and Smoke FEW037 83 58     43%   83 29.85 29.85      
Aug 14 16:53 WNW 8 3 Haze and Smoke CLR 84 57     40%   83 29.86 29.87      
Aug 14 15:53 W 9 3 Haze and Smoke CLR 83 58     43%   83 29.87 29.88      
Aug 14 14:53 WNW 9 3 Haze and Smoke FEW038 82 60     47%   82 29.89 29.9      
Aug 14 13:53 WNW 7 3 Haze and Smoke SCT037 81 60     49%   82 29.91 29.92      
Aug 14 12:53 W 9 3 Haze and Smoke SCT037 78 60     54%   78 29.93 29.94      
Aug 14 11:53 W 6 3 Haze and Smoke SCT036 76 60     58%   76 29.94 29.95      
Aug 14 10:53 6 3 Haze and Smoke SCT050 75 60     60%   75 29.96 29.96      
Aug 14 09:53 NE 5 3 Haze and Smoke SCT050 72 60     66%   72 29.96 29.97      
Aug 14 08:53 NNE 3 3 Haze and Smoke SCT050 68 60     76%     29.97 29.98      
Aug 14 07:53 N 5 3 Haze and Smoke SCT050 65 59     81%     29.97 29.98      
Aug 14 06:53 Calm 3 Fog/Mist and Smoke BKN050 62 58     86%     29.96 29.97      
Aug 14 05:53 NE 7 4 Haze and Smoke SCT050 63 58     84%     29.96 29.97      
Aug 14 03:53 NNE 5 6 Haze and Smoke BKN046 64 57     78%     29.97 29.97      
Aug 14 02:53 N 7 6 Haze and Smoke BKN044 65 57     76%     29.97 29.98      
Aug 14 01:53 NNE 8 6 Haze and Smoke BKN040 66 57     73%     29.97 29.98      
Aug 14 00:53 N 13 6 Haze and Smoke BKN040 67 56     68%     29.98 29.99      
Aug 13 23:53 NNE 8 6 Haze and Smoke BKN041 67 58     73%     29.98 29.99      
Aug 13 22:53 NNE 10 6 Haze and Smoke BKN042 69 57     65%     29.98 29.99      
Aug 13 20:53 N 10 6 Smoke and Haze BKN038 69 58     68%     29.98 30      
Aug 13 19:53 N 8 5 Haze and Smoke BKN035 72 58     61%   72 29.98 29.99      
Aug 13 18:53 N 9 6 Haze and Smoke SCT038 75 58     55%   75 29.97 29.98      
Aug 13 17:53 7 6 Haze and Smoke FEW046 78 58     50%   78 29.99 30      
Aug 13 16:53 NW 10 6 Haze and Smoke SCT040 78 58     50%   78 30 30.01      
Aug 13 15:53 NNE 8 6 Haze FEW036 78 57     48%   78 30.02 30.03      
Aug 13 14:53 N 8 7 Clear CLR 77 58     52%   77 30.04 30.05      
Aug 13 13:53 N 8 7 Clear CLR 76 58     54%   76 30.05 30.06      
Aug 13 11:53 5 9 Clear CLR 72 57     59%   72 30.08 30.1      
Aug 13 10:53 5 10 Mostly Clear FEW015 69 57     65%     30.09 30.11      
Aug 13 09:53 7 10 Partly Cloudy SCT011 67 56     68%     30.1 30.12      
Aug 13 08:53 NNE 8 10 Mostly Cloudy BKN011 63 55     75%     30.12 30.13      
Aug 13 08:13 NNE 9 10 Mostly Cloudy BKN011 BKN050 62 54     75%     30.12        
Aug 13 07:53 NNE 9 10 Mostly Clear FEW050 61 54     78%     30.12 30.13      
Aug 13 06:53 NNE 9 10 Clear CLR 59 53     81%     30.11 30.12      
Aug 13 04:53 NNE 9 10 Clear CLR 59 53     81%     30.11 30.12      
Aug 13 03:53 NNE 11 10 Clear CLR 60 53     78%     30.11 30.13      
May 15 00:53 WSW 6 10 Mostly Clear FEW250 63 51     65%     29.89 29.9      
May 14 14:53 NW 8 10 Mostly Clear FEW050 FEW250 84 55     37%   83 29.9 29.91      
May 14 05:53 SSW 3 10 Mostly Clear FEW250 59 52     78%     29.96 29.97      
May 13 17:53 N 5 10 Mostly Clear FEW250 84 46     27%   82 29.9 29.91      
May 13 01:53 NE 7 10 Clear CLR 60 47     62%     29.97 29.98      
May 12 18:53 NNE 13 10 Mostly Clear FEW030 74 49     41%   73 29.98 29.99      
May 12 17:53 N 13 10 Mostly Clear FEW030 76 49     39%   75 29.99 30.01      
May 12 13:53 NNE 11 10 Clear   72 51     48%   71 30.07 30.08      
Jun 12 03:53 SW 7 10 Partly Cloudy SCT011 52 49     89%     30 30.02      
Jun 11 13:53 WSW 7 10 Partly Cloudy FEW040 SCT170 65 48     54%     30.02 30.04      
Jun 11 02:53 S 5 10 Mostly Cloudy SCT080 BKN180 53 49     86%     29.99 30.01      
Jun 10 15:53 WNW 10 10 Partly Cloudy SCT045 SCT200 66 41     40%     29.86 29.87      
Jun 07 10:53 W 7 10 Mostly Cloudy FEW120 BKN250 67 48     51%     29.78 29.79      
Jun 06 05:53 NNE 6 10 Partly Cloudy SCT140 SCT250 56 43     62%     30.01 30.03      
Jun 05 21:53 N 8 10 Mostly Cloudy BKN250 62 43     50%     30.06 30.07